Regional Weather Roundup
Issued by NWS

Home | Current Version | Previous Version | Graphics & Text | Print | Product List | Glossary On
Versions: 1 2 3 4 5 6 7 8 9 10 11 12 13 14 15 16 17 18 19 20 21 22 23 24 25 26 27 28 29 30 31 32 33 34 35 36 37 38 39 40 41 42 43 44 45 46 47 48 49 50
000
ASUS43 KTOP 060459
RWRKS

WEATHER ROUNDUP FOR KANSAS
NATIONAL WEATHER SERVICE GOODLAND KS
1200 AM CDT FRI MAY 06 2016

NOTE:  "FAIR" INDICATES FEW OR NO CLOUDS BELOW 12,000 FEET WITH NO
SIGNIFICANT WEATHER AND/OR OBSTRUCTIONS TO VISIBILITY.

KSZ001>006-013>018-027>032-041>047-060600-
NORTHWEST KANSAS

CITY           SKY/WX    TMP DP  RH WIND       PRES   REMARKS
GOODLAND       CLEAR     58  48  69 S14       30.04S
HAYS           CLOUDY    55  43  62 SE7       30.05S
HILL CITY      CLOUDY    62  47  57 S7        30.03F
RUSSELL        CLEAR     58  45  62 SE10      30.03F
$$

KSZ061>065-074>080-084>089-060600-
SOUTHWEST KANSAS

CITY           SKY/WX    TMP DP  RH WIND       PRES   REMARKS
DODGE CITY     CLOUDY    58  44  60 SE14      30.06S
ELKHART          N/A     59  46  62 SE16        N/A
GARDEN CITY    CLEAR     59  46  62 SE13      30.05R
GREAT BEND     CLEAR     55  43  62 SE8       30.06S
LIBERAL        CLEAR     61  46  59 SE9       30.06R
$$

KSZ066>073-081>083-090>101-060600-
SOUTHEAST KANSAS

CITY           SKY/WX    TMP DP  RH WIND       PRES   REMARKS
CHANUTE        CLEAR     52  46  80 CALM      30.06S
COFFEYVILLE    CLEAR     55  50  83 CALM      30.06S
HUTCHINSON     CLEAR     54  44  69 E3        30.06S
MEDICINE LODGE   N/A     62  47  57 E7        30.05F
NEWTON         CLEAR     57  39  51 SE6       30.09S
PARSONS        CLEAR     52  50  93 CALM      30.07S
WICHITA INTL   PTCLDY    62  45  53 SE5       30.06S
WICHITA JABRA  CLEAR     59  45  59 S6        30.06S
WINFIELD       CLEAR     57  46  66 CALM      30.44F
$$

KSZ007>012-019>026-033>040-048>060-102>105-060600-
NORTHEAST KANSAS

CITY           SKY/WX    TMP DP  RH WIND       PRES   REMARKS
CONCORDIA      CLEAR     61  43  51 S12       30.04S
EMPORIA        CLEAR     58  46  64 S7        30.06S
LAWRENCE       CLEAR     50  47  89 CALM      30.05S
MANHATTAN      CLEAR     56  45  66 W3        30.05S
OLATHE IND     CLEAR     54  42  64 S3        30.06S
OLATHE EXE     CLEAR     55  42  61 CALM      30.06S
SALINA         CLEAR     56  48  74 SE6       30.05S
TOPEKA BILLARD CLEAR     57  48  72 CALM      30.05R
TOPEKA FORBES  CLEAR     55  47  74 CALM      30.05S
$$




USA.gov is the U.S. government's official web portal to all federal, state and local government web resources and services.